Theta_e
312 311 312 312 312 311 312 311 311 313 313 314 315 314 314 312 310 309 309 310 311 309 308 309 309 308 306 304 302 300 299 298 298 297 297 296 295 294 293 293 292 292 291 291
314 314 312 311 312 312 312 312 311 312 310 311 312 313 312 310 312 312 311 311 311 308 306 305 306 305 304 302 300 299 298 298 297 297 296 295 295 293 293 292 291 291 290 290
313 313 313 313 313 313 312 312 312 312 312 310 310 311 311 310 310 311 311 310 310 307 305 304 300 302 302 299 298 298 298 298 297 296 295 294 294 293 291 291 290 290 290 290
312 312 312 312 312 312 313 311 312 312 313 314 311 314 311 310 310 309 310 311 307 304 304 302 301 299 300 298 298 298 298 297 296 296 294 294 292 291 291 291 290 290 289 289
312 312 311 312 313 311 313 312 312 313 312 312 313 312 313 309 309 310 311 311 309 303 304 302 302 303 300 298 297 297 297 296 295 295 294 293 292 291 292 291 290 289 289 288
308 308 311 311 310 310 310 311 311 310 308 313 310 311 311 309 310 310 310 310 309 304 303 303 302 301 299 298 297 296 296 295 295 295 294 293 292 292 291 290 290 289 289 288
308 308 308 309 311 308 310 310 311 311 311 315 309 309 313 311 309 309 310 310 309 305 302 300 298 298 297 296 296 295 295 294 294 294 294 293 292 292 292 291 290 289 288 288
310 310 308 307 310 310 308 311 312 310 312 313 306 312 313 310 310 308 308 309 307 304 302 300 299 298 297 296 296 296 295 294 294 294 293 293 292 292 292 291 290 290 289 289
309 311 309 307 308 310 310 311 311 312 299 310 313 311 310 311 310 308 308 305 306 304 301 300 297 297 296 296 296 296 295 295 294 293 293 292 292 291 291 290 290 290 290 289
311 311 309 307 307 308 309 308 312 311 312 312 313 310 313 312 313 311 308 305 305 304 302 301 298 296 297 297 296 296 295 294 293 293 293 292 291 291 291 290 290 289 289 288
308 311 311 306 307 309 308 309 309 310 312 314 313 314 312 311 311 310 307 305 303 304 302 301 300 299 298 297 296 295 295 294 294 293 292 291 291 290 290 290 289 289 289 287
310 312 314 309 305 305 307 309 309 312 311 309 313 314 311 307 308 305 308 307 306 306 304 300 300 298 297 296 296 295 294 294 294 292 291 291 290 289 289 289 288 289 288 286
313 314 316 314 310 305 307 306 307 309 309 313 314 313 312 311 309 304 305 303 303 305 304 302 299 298 298 297 295 295 294 294 293 292 291 289 289 289 288 287 287 287 287 285
315 314 315 318 315 311 312 309 307 310 311 313 312 312 311 311 310 310 309 309 309 305 306 304 302 299 297 297 296 295 294 294 293 291 290 288 288 288 287 286 286 286 285 284
314 317 315 315 314 313 313 313 313 312 312 313 313 312 310 310 310 309 309 309 306 303 303 303 303 301 298 297 296 295 294 292 292 290 288 288 286 286 285 284 285 285 284 282
313 317 317 318 315 314 315 315 314 315 314 313 312 311 311 311 311 311 311 310 309 307 306 304 301 300 298 296 297 295 293 292 291 289 287 286 285 284 283 283 284 283 282 281
314 315 317 319 317 316 318 316 316 314 313 312 313 312 310 310 310 311 311 310 310 308 307 305 303 300 298 297 298 294 294 291 290 288 286 285 282 281 280 282 282 280 279 279
312 311 313 318 316 318 314 311 312 314 312 312 312 312 312 312 312 311 311 311 310 310 309 303 300 299 299 303 300 299 294 290 289 287 285 282 281 279 279 280 279 278 277 277
312 314 316 317 317 315 313 310 311 312 312 311 311 312 311 311 310 310 310 307 308 307 308 308 302 302 302 302 302 295 290 289 287 285 283 281 280 278 277 277 276 276 275 275
310 312 313 313 315 314 310 310 309 310 314 301 302 303 304 305 311 309 306 303 303 301 300 298 299 300 300 300 297 291 288 286 286 285 283 280 279 278 276 276 275 275 275 274
305 309 313 314 315 312 305 304 307 315 303 299 298 299 298 302 302 302 301 300 299 298 296 298 296 293 295 294 292 288 286 285 286 284 282 279 278 277 276 275 274 273 273 273
299 301 300 304 307 309 301 302 297 295 298 297 295 295 295 296 297 298 298 297 298 298 298 298 293 292 292 291 290 286 284 286 285 282 279 277 276 275 274 273 272 272 272 271
294 296 295 296 297 293 295 293 292 297 294 293 293 293 294 295 296 296 296 297 297 298 297 299 294 289 291 290 289 286 286 285 282 279 276 275 274 274 273 272 271 270 270 270
288 289 290 290 290 290 290 291 293 291 291 290 289 288 290 293 291 291 291 293 293 293 294 296 296 295 294 293 288 288 286 284 280 276 274 272 272 271 271 270 270 270 270 270
289 290 287 288 288 288 289 290 288 288 285 284 284 286 285 284 284 285 286 287 289 291 292 294 293 292 293 294 292 290 285 282 277 275 272 271 270 270 269 270 270 270 271 272
289 289 289 288 288 287 288 286 286 282 281 280 281 280 280 280 280 281 282 282 283 284 286 289 291 290 291 292 290 288 284 280 276 274 271 271 270 269 269 269 270 271 271 273
Wind_Speed
6 5 10 24 14 8 5 6 9 18 10 10 17 18 21 19 10 12 16 18 20 17 16 23 32 39 39 40 42 45 45 41 40 39 37 32 33 31 28 27 24 23 21 19
3 13 20 5 10 10 10 14 15 15 12 10 14 21 16 9 13 16 17 19 24 11 9 9 21 31 38 41 41 43 44 42 43 41 40 32 37 33 31 27 25 24 23 21
20 11 17 12 9 8 19 15 19 19 10 6 9 11 12 11 9 14 18 21 21 12 11 8 10 25 32 36 42 45 45 45 45 43 40 28 31 24 27 29 29 30 27 24
11 11 11 6 7 12 22 10 14 8 3 13 4 16 9 7 12 10 15 21 11 11 10 8 11 15 30 35 41 45 45 46 44 44 42 40 36 28 33 40 38 33 29 26
10 3 8 14 26 9 20 4 5 2 4 5 5 6 3 8 8 12 16 20 17 12 13 12 15 26 28 36 40 43 44 43 41 45 45 43 36 32 30 36 37 34 30 26
11 0 4 7 2 6 2 1 1 2 2 12 8 9 5 7 9 6 11 15 16 10 9 10 10 21 22 31 34 37 40 42 44 45 45 46 40 39 33 35 37 37 34 30
3 10 2 5 3 2 3 4 4 4 1 12 11 10 21 6 8 11 14 14 15 8 9 10 12 12 21 30 34 36 38 36 41 44 48 50 45 44 42 41 41 41 38 34
4 15 12 9 16 12 10 10 7 7 9 18 3 9 8 10 12 12 15 16 5 8 8 11 13 11 20 27 32 34 35 33 42 46 48 48 48 45 45 43 43 44 44 39
6 14 1 5 2 9 5 6 11 2 3 2 10 13 10 8 11 11 16 4 9 10 10 10 8 14 21 26 34 39 38 39 41 45 44 45 46 45 46 44 43 44 42 36
5 12 8 2 1 3 6 1 1 1 3 7 15 6 14 14 20 16 11 10 8 6 8 8 9 11 23 29 33 35 37 39 37 43 45 46 47 48 45 45 45 42 38 35
7 6 17 4 6 9 1 4 5 2 4 12 14 15 6 2 6 10 8 7 8 9 9 10 10 17 23 25 32 35 37 38 39 43 44 42 45 46 46 46 46 43 38 37
2 5 4 8 8 5 5 6 6 9 10 3 6 16 10 5 4 10 5 6 4 5 8 8 10 10 18 24 29 37 35 39 46 41 41 41 40 41 42 42 42 41 39 37
3 2 4 12 9 3 6 8 7 6 2 9 12 15 25 22 19 9 4 9 9 7 8 8 7 10 13 21 25 30 34 42 36 39 41 38 40 41 41 41 41 40 38 36
12 11 9 16 18 7 5 5 8 10 8 20 19 29 26 32 31 27 20 23 24 14 14 11 9 9 8 19 24 28 33 40 39 40 39 38 39 42 41 41 40 40 38 38
13 13 19 27 29 28 25 25 28 26 25 20 29 28 25 30 31 24 23 24 15 8 8 9 11 9 12 15 24 27 30 34 39 36 36 38 37 39 40 40 39 40 39 38
15 23 22 24 28 31 30 34 35 35 34 28 32 31 33 31 32 30 34 33 21 18 20 16 12 12 13 13 23 29 30 35 38 35 35 35 37 39 41 41 42 42 40 38
10 7 10 26 24 25 24 31 37 31 26 24 29 36 36 34 31 33 31 33 23 21 21 15 12 12 11 15 27 24 33 34 37 33 33 36 37 38 40 43 44 44 44 40
23 17 9 15 14 23 10 15 27 33 32 31 35 34 32 30 28 25 25 22 25 29 23 11 9 10 17 29 27 31 28 33 32 31 32 35 38 36 38 42 41 40 42 42
20 15 10 11 14 18 13 7 16 19 30 26 28 28 24 22 24 22 18 21 19 22 22 17 12 16 21 24 30 26 25 27 27 29 33 37 39 36 38 37 37 37 37 37
11 19 18 21 26 32 25 10 12 20 21 21 16 19 15 15 7 5 21 20 20 17 16 17 22 13 14 12 16 23 20 24 26 32 33 34 36 38 40 39 37 38 37 35
14 10 16 15 14 6 10 19 10 9 8 19 15 15 19 15 10 17 19 24 18 12 11 23 21 9 12 11 17 15 17 21 22 26 31 34 35 36 34 35 35 38 37 34
8 5 10 13 21 25 21 7 8 14 14 12 15 13 12 14 17 17 17 19 19 16 16 18 9 11 10 7 15 12 14 17 21 28 31 31 31 30 33 35 31 34 35 31
8 3 4 4 7 22 15 18 14 0 6 8 12 15 16 18 18 18 18 19 18 19 15 21 14 11 15 9 17 12 14 19 24 27 26 28 31 32 36 36 33 30 29 27
5 11 8 11 12 20 24 17 8 12 10 10 10 13 13 15 17 21 19 18 17 16 16 19 18 16 15 16 18 24 18 23 26 24 21 26 30 29 31 29 31 30 29 24
8 11 7 15 17 14 12 10 12 8 9 12 12 12 15 16 18 18 18 19 18 16 18 20 15 12 19 25 23 27 27 28 27 25 28 29 24 28 30 31 34 31 29 30
12 17 12 15 19 9 15 11 5 7 8 9 12 16 16 16 19 17 16 17 17 16 21 18 23 20 24 28 26 25 26 30 26 23 23 23 27 34 34 31 26 24 26 21
Wind_Direction
207 154 203 231 200 226 243 253 237 268 267 206 239 238 256 257 263 252 257 262 259 247 249 242 223 210 197 196 192 190 189 193 192 188 187 190 194 199 200 203 203 200 196 193
255 218 220 205 204 222 245 256 263 273 264 196 248 254 251 242 247 245 244 254 258 253 251 242 198 188 184 183 184 183 188 190 192 191 194 194 197 199 204 201 203 203 199 198
225 219 217 224 232 257 251 249 258 254 289 237 282 267 253 248 260 256 256 251 258 239 228 212 176 179 172 174 179 183 189 193 194 196 194 193 196 199 199 203 204 204 203 201
248 230 216 193 212 194 259 216 257 266 263 272 133 290 220 228 242 238 248 259 247 222 224 193 179 172 175 179 181 186 190 194 195 197 192 193 190 190 204 201 204 203 204 203
234 215 207 227 232 194 260 175 234 254 247 318 176 284 200 192 243 248 248 255 262 218 210 188 190 187 181 176 180 186 191 193 195 201 200 199 198 201 205 205 204 201 202 205
247 190 227 213 166 190 123 206 214 37 80 264 186 207 172 186 216 239 249 256 259 223 201 198 180 165 175 179 180 184 188 194 201 202 202 204 202 202 200 200 199 199 201 202
293 224 149 148 180 311 178 88 297 320 14 255 185 222 254 265 235 214 234 245 242 185 179 165 162 173 174 179 183 186 191 192 198 202 205 208 206 208 208 204 199 198 199 200
259 283 158 187 202 191 192 183 176 209 256 276 75 251 269 232 233 231 223 229 217 170 181 178 179 179 182 186 187 190 194 196 202 205 209 210 212 212 215 214 207 204 202 204
214 263 312 194 173 152 170 182 222 339 76 4 261 278 284 249 275 268 243 230 212 191 184 189 178 184 185 189 195 194 197 201 205 206 209 211 214 213 215 215 214 212 208 205
234 272 196 123 88 318 174 172 95 270 218 248 272 287 277 292 284 289 251 206 210 191 181 191 196 193 195 198 201 203 206 206 207 209 211 211 213 217 217 216 212 212 209 201
341 263 266 132 192 190 272 255 228 235 185 242 258 271 137 210 315 293 246 203 193 205 209 205 205 203 203 197 201 207 208 209 211 215 212 210 214 216 217 220 218 215 207 200
234 299 300 238 281 193 157 219 230 248 265 240 278 269 301 325 10 317 172 188 178 189 225 214 209 196 191 199 199 206 208 210 216 214 214 213 214 215 216 215 216 209 204 202
165 194 277 317 301 249 203 201 205 232 139 244 265 266 276 280 280 222 298 284 276 261 251 229 214 207 206 205 206 207 209 215 213 211 212 208 211 214 212 210 210 206 204 202
195 202 198 236 238 241 267 258 258 248 250 257 249 258 264 268 261 262 268 265 265 253 244 220 223 219 208 209 207 211 214 216 212 207 203 203 206 208 208 207 205 203 203 202
189 235 216 228 241 257 254 253 258 255 252 248 253 251 251 257 270 275 275 271 269 239 224 225 232 223 216 215 216 214 217 209 208 198 199 202 202 202 205 202 202 202 202 202
223 249 237 236 229 230 239 251 252 252 250 253 256 260 255 256 263 271 269 270 280 271 262 243 224 227 226 215 216 215 210 206 203 196 197 194 194 194 197 197 198 199 199 200
255 251 224 244 233 238 244 241 246 250 253 248 251 249 254 262 261 261 272 279 280 266 258 250 236 224 231 226 221 210 211 203 196 192 189 188 187 188 190 195 197 196 196 196
263 259 254 266 256 240 236 217 229 240 247 252 255 258 261 259 268 274 276 280 285 281 278 250 236 233 233 242 235 226 204 194 186 183 183 184 184 183 185 190 190 190 192 194
229 248 262 262 259 277 267 228 225 232 249 265 279 277 280 291 282 277 303 340 324 316 305 287 244 232 236 237 238 206 181 178 177 181 185 185 183 179 180 182 184 185 185 187
269 242 249 257 258 263 278 333 278 262 260 356 345 356 357 347 323 358 346 347 338 343 349 335 322 292 273 260 218 177 174 176 186 190 188 183 182 180 182 184 182 182 185 187
285 290 270 262 265 268 17 349 317 250 333 314 6 8 1 348 338 316 326 326 324 323 327 335 336 334 333 293 193 175 171 201 200 182 184 184 185 186 185 179 179 180 176 180
279 297 284 291 268 274 9 10 20 307 307 347 341 332 327 314 304 304 301 308 312 321 329 324 314 320 326 247 209 187 203 209 192 186 182 180 182 180 180 177 175 176 172 173
282 326 307 318 320 316 300 311 319 304 328 323 323 341 336 317 312 320 323 322 317 317 322 321 310 313 309 259 224 215 225 200 186 186 179 176 178 180 183 174 174 169 173 169
281 285 282 315 295 296 298 311 358 357 350 345 334 309 312 310 308 299 301 299 298 298 304 309 309 307 296 287 261 248 237 205 192 178 175 174 172 171 177 178 178 173 178 174
253 289 253 277 282 287 280 306 346 350 350 336 323 321 312 305 299 299 300 300 296 308 302 303 294 276 280 283 265 259 241 212 186 178 174 176 181 176 174 181 181 177 187 183
252 257 266 273 284 293 295 322 334 350 323 310 310 307 305 304 300 305 305 301 306 308 305 303 290 284 280 276 262 253 229 212 189 177 179 190 182 179 177 176 172 186 186 180